STARLINK-4387, 53490

Orbit data source: Space-Track

STARLINK-4387, 53490 is a payload satellite owned by SpaceX/Seattle (US) in SSO that was launched on Fri, 12 Aug 2022 UTC via an FALCON 9 launch vehicle from the Air Force Western Test Range (AFWTR). Payload-class satellites include a variety of spacecraft equipped with specific instruments for various scientific and technological missions. These include communications satellites like Starlink; space stations such as the ISS; scientific satellites like the Hubble; Earth observation satellites from companies like Planet Labs, Umbra, and HawkEye 360; GPS; miniature CubeSats for education and research; and military/defense satellites.

Loading next visibility...
Identifier
53490, 2022-099AB
Orbit
SSO
Country
Flag of USUS
Related business
Manufacturer
SpaceX/Seattle
Mission
Operational Commercial Communications
Bus & Motor
STARLINK, Unknown motor
Mass
300 kg wet, ~275 kg dry
Launch date (UTC)
2022-08-12 (4 years ago)
Launch vehicle
FALCON 9
Launch site
Air Force Western Test Range (AFWTR)
Object type
Payload
Rocket body
Debris
Shape & HBR
Box + 1 Pan, 10.1 m
Radar Cross Section
13.562 m², Large (>1 m²)

Expand to show TLE details & history
Last TLE update: 2 days ago

TLE from 2 days ago
0 STARLINK-4387
1 53490U 22099AB  26171.29474255  .00108565  00000-0  35880-2 0  9999
2 53490  97.6042 294.6024 0002685 119.5040 240.6469 15.30920561211624
Epoch: 2026-06-20T07:04Z
TLE epoch observation values (Epoch: 2026-06-20T07:04:25.756Z)
Latitude
0.00004°
Longitude
-80.01635°
Altitude
477.066 km
Speed
7.627 km/s
True Right ascension
19h 38m 24s
True Declination
0° 00' 00"
Sunlit
Object was in full shadow at epoch
Visualization orbit readout
Latitude
Unknown
Longitude
Unknown
Altitude
Unknown
Speed
Unknown
Apparent Right ascension
Unknown
Apparent Declination
Unknown
Sunlit
N/A
Visualization observer readout
Local Sidereal Time
21:46:58
Azimuth
Unknown
Elevation
Unknown
Doppler factor
Unknown
Orbital elements
Apogee altitude
471.863 km
Perigee altitude
468.186 km
Semi-major axis
6,848.161 km
Eccentricity
0.00027
Inclination
97.6042°
RAAN
294.6024°
Arg. of periapsis
119.504°
True anomaly
240.62009°
Mean anomaly
240.6469°
Eccentric anomaly
240.63349°
Mean motion
3.82985 °/min
Orbital period
94 mins
BSTAR
0.003588
Loading maneuver chart data...
Computing Atmospheric mass density...

Documentation

Showing up to 5 results
|